Weather History for Gadsden, AL

Change the Weather History Date:

Monday, October 11, 2010

  Actual Average Record
Temperature  
Mean Temperature 66 °F -  
Max Temperature 87 °F 72 °F 87 °F (1931)
Min Temperature 46 °F 49 °F 30 °F (2000)
Cooling Degree Days 2    
Growing Degree Days 16 (Base 50)    
Moisture  
Dew Point 49 °F    
Average Humidity 59    
Maximum Humidity 93    
Minimum Humidity 23    
Precipitation  
Precipitation 0.00 in - - ()
Sea Level Pressure  
Sea Level Pressure 29.95 in    
Wind  
Wind Speed 1 mph (SSW)    
Max Wind Speed 14 mph    
Max Gust Speed 18 mph    
Visibility 10 miles    
Events      
Averages and records for this station are not official NWS values.
T = Trace of Precipitation, MM = Missing Value Source: NWS Daily Summary

Daily Weather History Graph

Daily Weather History Graph

Search for Another Location

Airport:

Trip Planner

Search our weather history database for the weather conditions in past years. The results will help you decide how hot, cold, wet, or windy it might be!

Date:

Astronomy

Oct. 11, 2010 Rise Set
Actual Time 6:46 AM CDT 6:15 PM CDT
Civil Twilight 6:21 AM CDT 6:40 PM CDT
Nautical Twilight 5:52 AM CDT 7:09 PM CDT
Astronomical Twilight 5:23 AM CDT 7:38 PM CDT
Moon 11:07 AM CDT (10/11) 9:07 PM CDT (10/11)
Length of Visible Light 12h 19m
Length of Day
11h 29m
Waxing Crescent, 19% of the Moon is Illuminated
Oct 11
Waxing Crescent
Oct 14
First Quarter
Oct 22
Full
Oct 30
Last Quarter
Nov 5
New

Hourly Weather History & Observations

Time (CDT) Temp. Heat Index Dew Point Humidity Pressure Visibility Wind Dir Wind Speed Gust Speed Precip Events Conditions
12:15 AM 55.4 °F - 48.2 °F 77% 29.96 in 10.0 mi Calm Calm - N/A   Clear
12:35 AM 53.6 °F - 48.2 °F 82% 29.96 in 10.0 mi Calm Calm - N/A   Clear
12:55 AM 55.4 °F - 48.2 °F 77% 29.95 in 10.0 mi Calm Calm - N/A   Clear
1:15 AM 53.6 °F - 48.2 °F 82% 29.95 in 10.0 mi Calm Calm - N/A   Clear
1:35 AM 53.6 °F - 48.2 °F 82% 29.96 in 10.0 mi Calm Calm - N/A   Clear
1:55 AM 53.6 °F - 48.2 °F 82% 29.96 in 10.0 mi Calm Calm - N/A   Clear
2:15 AM 53.6 °F - 46.4 °F 77% 29.96 in 10.0 mi Calm Calm - N/A   Clear
2:35 AM 51.8 °F - 46.4 °F 82% 29.95 in 10.0 mi Calm Calm - N/A   Clear
2:55 AM 51.8 °F - 46.4 °F 82% 29.95 in 10.0 mi Calm Calm - N/A   Clear
3:15 AM 51.8 °F - 46.4 °F 82% 29.95 in 10.0 mi Calm Calm - N/A   Clear
3:35 AM 51.8 °F - 46.4 °F 82% 29.95 in 10.0 mi Calm Calm - N/A   Clear
3:55 AM 50.0 °F - 46.4 °F 87% 29.95 in 10.0 mi Calm Calm - N/A   Clear
4:15 AM 50.0 °F - 46.4 °F 87% 29.95 in 10.0 mi Calm Calm - N/A   Clear
4:35 AM 48.2 °F - 44.6 °F 87% 29.96 in 10.0 mi Calm Calm - N/A   Clear
4:55 AM 48.2 °F - 44.6 °F 87% 29.96 in 10.0 mi Calm Calm - N/A   Clear
5:15 AM 48.2 °F - 46.4 °F 93% 29.96 in 10.0 mi Calm Calm - N/A   Clear
5:35 AM 48.2 °F - 44.6 °F 87% 29.97 in 10.0 mi Calm Calm - N/A   Clear
5:55 AM 48.2 °F - 44.6 °F 87% 29.97 in 10.0 mi Calm Calm - N/A   Clear
6:15 AM 48.2 °F - 44.6 °F 87% 29.97 in 10.0 mi Calm Calm - N/A   Clear
6:35 AM 46.4 °F - 44.6 °F 93% 29.98 in 10.0 mi Calm Calm - N/A   Clear
6:55 AM 48.2 °F - 44.6 °F 87% 29.98 in 10.0 mi Calm Calm - N/A   Clear
7:15 AM 46.4 °F - 44.6 °F 93% 29.98 in 10.0 mi Calm Calm - N/A   Clear
7:35 AM 48.2 °F - 46.4 °F 93% 29.99 in 10.0 mi Calm Calm - N/A   Clear
7:55 AM 51.8 °F - 46.4 °F 82% 30.00 in 10.0 mi Calm Calm - N/A   Clear
8:15 AM 53.6 °F - 48.2 °F 82% 30.00 in 10.0 mi Calm Calm - N/A   Clear
8:35 AM 55.4 °F - 48.2 °F 77% 30.00 in 10.0 mi Calm Calm - N/A   Clear
8:55 AM 59.0 °F - 48.2 °F 67% 30.00 in 10.0 mi Calm Calm - N/A   Clear
9:15 AM 62.6 °F - 51.8 °F 68% 30.00 in 10.0 mi Calm Calm - N/A   Clear
9:35 AM 64.4 °F - 51.8 °F 64% 30.00 in 10.0 mi Calm Calm - N/A   Clear
9:55 AM 66.2 °F - 53.6 °F 64% 30.00 in 10.0 mi SSW 5.8 mph - N/A   Clear
10:15 AM 69.8 °F - 53.6 °F 56% 29.99 in 10.0 mi WSW 3.5 mph - N/A   Clear
10:35 AM 71.6 °F - 53.6 °F 53% 29.99 in 10.0 mi West 4.6 mph - N/A   Clear
10:55 AM 73.4 °F - 53.6 °F 50% 29.98 in 10.0 mi South 3.5 mph - N/A   Clear
11:15 AM 75.2 °F - 53.6 °F 47% 29.98 in 10.0 mi West 3.5 mph - N/A   Clear
11:35 AM 77.0 °F - 53.6 °F 44% 29.98 in 10.0 mi WSW 4.6 mph - N/A   Clear
11:55 AM 78.8 °F - 53.6 °F 42% 29.98 in 10.0 mi SW 6.9 mph - N/A   Clear
12:15 PM 80.6 °F 80.5 °F 55.4 °F 42% 29.97 in 10.0 mi South 5.8 mph - N/A   Clear
12:35 PM 82.4 °F 81.7 °F 55.4 °F 39% 29.96 in 10.0 mi SSW 5.8 mph - N/A   Clear
12:55 PM 82.4 °F 81.4 °F 53.6 °F 37% 29.95 in 10.0 mi South 8.1 mph - N/A   Clear
1:15 PM 84.2 °F - 51.8 °F 33% 29.94 in 8.0 mi South 6.9 mph - N/A   Clear
1:35 PM 84.2 °F - 46.4 °F 27% 29.92 in 10.0 mi SSE 3.5 mph - N/A   Clear
1:55 PM 86.0 °F - 46.4 °F 25% 29.92 in 10.0 mi Calm Calm - N/A   Clear
2:15 PM 87.8 °F - 46.4 °F 24% 29.90 in 10.0 mi WSW 8.1 mph - N/A   Clear
2:35 PM 86.0 °F - 44.6 °F 23% 29.90 in 10.0 mi Calm Calm - N/A   Partly Cloudy
2:55 PM 87.8 °F - 46.4 °F 24% 29.89 in 10.0 mi WSW 11.5 mph - N/A   Scattered Clouds
3:15 PM 87.8 °F - 48.2 °F 25% 29.88 in 10.0 mi WSW 13.8 mph 18.4 mph N/A   Mostly Cloudy
3:35 PM 86.0 °F - 46.4 °F 25% 29.89 in 10.0 mi SW 5.8 mph - N/A   Mostly Cloudy
3:55 PM 84.2 °F - 48.2 °F 29% 29.88 in 10.0 mi SW 4.6 mph - N/A   Mostly Cloudy
4:15 PM 84.2 °F - 48.2 °F 29% 29.88 in 10.0 mi SSW 4.6 mph - N/A   Mostly Cloudy
4:35 PM 86.0 °F - 48.2 °F 27% 29.88 in 10.0 mi Calm Calm - N/A   Mostly Cloudy
4:55 PM 84.2 °F - 46.4 °F 27% 29.88 in 10.0 mi South 6.9 mph - N/A   Overcast
5:15 PM 84.2 °F - 48.2 °F 29% 29.88 in 10.0 mi SW 3.5 mph - N/A   Mostly Cloudy
5:35 PM 80.6 °F - 48.2 °F 32% 29.89 in 10.0 mi SSW 3.5 mph - N/A   Scattered Clouds
5:55 PM 80.6 °F - 50.0 °F 34% 29.89 in 10.0 mi SSW 3.5 mph - N/A   Mostly Cloudy
6:15 PM 78.8 °F - 50.0 °F 36% 29.90 in 10.0 mi SSW 3.5 mph - N/A   Overcast
6:35 PM 75.2 °F - 51.8 °F 44% 29.90 in 10.0 mi SSW 3.5 mph - N/A   Overcast
6:55 PM 75.2 °F - 50.0 °F 41% 29.90 in 10.0 mi SSW 3.5 mph - N/A   Overcast
7:15 PM 75.2 °F - 50.0 °F 41% 29.91 in 10.0 mi SW 3.5 mph - N/A   Overcast
7:35 PM 73.4 °F - 51.8 °F 47% 29.91 in 10.0 mi SW 3.5 mph - N/A   Overcast
7:55 PM 71.6 °F - 53.6 °F 53% 29.92 in 10.0 mi SW 3.5 mph - N/A   Scattered Clouds
8:35 PM 69.8 °F - 51.8 °F 53% 29.93 in 10.0 mi Calm Calm - N/A   Scattered Clouds
8:55 PM 66.2 °F - 51.8 °F 60% 29.93 in 10.0 mi WSW 3.5 mph - N/A   Partly Cloudy
9:15 PM 66.2 °F - 53.6 °F 64% 29.93 in 10.0 mi Calm Calm - N/A   Clear
9:35 PM 64.4 °F - 51.8 °F 64% 29.94 in 10.0 mi Calm Calm - N/A   Clear
9:55 PM 62.6 °F - 53.6 °F 72% 29.94 in 10.0 mi Calm Calm - N/A   Scattered Clouds
10:15 PM 62.6 °F - 51.8 °F 68% 29.94 in 10.0 mi Calm Calm - N/A   Partly Cloudy
10:35 PM 62.6 °F - 51.8 °F 68% 29.94 in 10.0 mi Calm Calm - N/A   Scattered Clouds
10:55 PM 62.6 °F - 51.8 °F 68% 29.94 in 10.0 mi Calm Calm - N/A   Scattered Clouds
11:15 PM 60.8 °F - 51.8 °F 72% 29.95 in 10.0 mi SW 5.8 mph - N/A   Partly Cloudy
11:35 PM 60.8 °F - 51.8 °F 72% 29.95 in 10.0 mi Calm Calm - N/A   Clear
11:55 PM 59.0 °F - 51.8 °F 77% 29.95 in 10.0 mi Calm Calm - N/A   Clear